Location: Texas Valley
(42.4862°N, 75.9730°W)
Time: 00:59:35
(UTC+00:00)

Tiangong - Pass Details

Date: 26 April 2024
Orbit: 372 x 375 km, 41.5° (Epoch: 20 May)

Event Time Altitude Azimuth Distance (km) Brightness Sun altitude
Rises 01:09:17 0° 276° (W) 2,261 3.0 -12.7°
Reaches altitude 10° 01:11:26 10° 269° (W) 1,402 1.6 -13.0°
Maximum altitude 01:14:26 41° 198° (SSW) 564 -1.5 -13.5°
Enters shadow 01:15:40 27° 146° (SE) 772 -1.2 -13.7°
